[Iaude] MPEC V04: 2023 UU10 [a=2.34,e=0.84,i=13.2,H=19.8]

mpec at marsden.cfa.harvard.edu mpec at marsden.cfa.harvard.edu
Wed Nov 1 09:20:26 EDT 2023


M.P.E.C. 2023-V04                              Issued 2023 November 1, 13:18 UT

     The Minor Planet Electronic Circulars contain information on unusual
         minor planets, routine data on comets and natural satellites,
         and occasional editorial announcements.  They are published
    on behalf of Division F of the International Astronomical Union by the
          Minor Planet Center, Smithsonian Astrophysical Observatory,
                          Cambridge, MA 02138, U.S.A.
			  
             Prepared using the Tamkin Foundation Computer Network

                              MPC at CFA.HARVARD.EDU
            URL https://www.minorplanetcenter.net/    ISSN 1523-6714

                                   2023 UU10                                    


Observations:
     K23U10U* C2023 10 20.61068607 50 32.783+39 56 56.44         21.40wXEV004F52
     K23U10U  C2023 10 20.62609707 50 30.002+39 57 06.36         21.24wXEV004F52
     K23U10U  C2023 10 20.63381007 50 28.627+39 57 11.16         21.43wXEV004F52
     K23U10U KC2023 10 21.34512607 48 24.51 +40 04 23.4          21.0 VuEV004H21
     K23U10U KC2023 10 21.35072207 48 23.50 +40 04 26.9          20.9 VuEV004H21
     K23U10U KC2023 10 21.35622507 48 22.50 +40 04 30.2          21.0 VuEV004H21
     K23U10U KC2023 10 22.40052807 45 15.790+40 15 02.48         21.07GVEV004I52
     K23U10U KC2023 10 22.40398607 45 15.203+40 15 04.64         21.05GVEV004I52
     K23U10U KC2023 10 22.40744007 45 14.555+40 15 06.70         21.04GVEV004I52
     K23U10U KC2023 10 22.41090207 45 13.892+40 15 09.04         21.10GVEV004I52
     K23U10U  C2023 10 25.45659107 35 40.362+40 44 28.58         21.2 GVEV004654
     K23U10U  C2023 10 25.46861907 35 37.969+40 44 35.85         21.2 GVEV004654
     K23U10U KC2023 11 01.43922207 10 58.745+41 40 13.70         21.1 GVEV004H01
     K23U10U KC2023 11 01.44670007 10 57.002+41 40 16.54         22.0 GVEV004H01
     K23U10U KC2023 11 01.45353907 10 55.394+41 40 19.39         21.5 GVEV004H01
     K23U10U KC2023 11 01.46166907 10 53.484+41 40 22.50         22.2 GVEV004H01

Observer details:
654 Table Mountain Observatory, Wrightwood-PHMC.  Observers N. Evans, P. Choi,
    N. Saini, C. Zhai, R. Trahan, M. Shao.  1.0-m Reflector + CCD.
F52 Pan-STARRS 2, Haleakala.  Observers J. Bulger, T. Lowe, P. Minguez, A.
    Schultz, I. Smith.  Measurers K. Chambers, T. de Boer, J. Fairlamb, H.
    Gao, M. Huber, C.-C. Lin, E. Magnier, Y. Ramanjooloo, R. Wainscoat, R.
    Weryk.  1.8-m Ritchey-Chretien + CCD.
H01 Magdalena Ridge Observatory, Socorro.  Observers W. H. Ryan, E. V. Ryan.
    Measurer W. H. Ryan.  2.4-m f/8.9 Ritchey-Chretien + CCD.
H21 Astronomical Research Observatory, Westfield.  Observer R. Holmes.
    Measurers T. Linder, R. Holmes, L. Horn.  0.76-m f/3.0 astrograph + CCD.
I52 Steward Observatory, Mt. Lemmon Station.  Observer J. B. Fazekas.
    Measurers E. C. Beshore, D. Fay, J. B. Fazekas, D. C. Fuls, A. R. Gibbs,
    A. D. Grauer, H. Groeller, J. K. Hogan, R. A. Kowalski, S. M. Larson, G.
    J. Leonard, D. Rankin, R. L. Seaman, F. C. Shelly, K. W. Wierzchos.  1.0-m
    prime focus + CCD.

Orbital elements:
2023 UU10                                                Earth MOID = 0.1996 AU
Epoch 2023 Sept. 13.0 TT = JDT 2460200.5                Bell                    
M   5.91832              (2000.0)            P               Q                  
n   0.27531502     Peri.    6.17444     +0.41180109     +0.88516058             
a   2.3401810      Node   288.31301     -0.84553487     +0.28250856             
e   0.8441083      Incl.   13.18777     -0.33983915     +0.36970212             
P   3.58           H   19.82          G   0.15           U   9                  
Residuals in seconds of arc
231020 F52  0.2+  0.3-    231022 I52  0.4-  0.2-    231101 H01  0.1-  0.1+
231020 F52  0.0   0.2-    231022 I52  0.2+  0.2-    231101 H01  0.1+  0.1-
231020 F52  0.1+  0.2-    231022 I52  0.1+  0.4-    231101 H01  0.0   0.1+
231021 H21  0.1+  0.7+    231022 I52  0.2-  0.2-    231101 H01  0.0   0.0
231021 H21  0.1+  0.6+    231025 654  0.0   0.1-
231021 H21  0.0   0.4+    231025 654  0.1+  0.3+

Ephemeris:
2023 UU10                a,e,i = 2.34, 0.84, 13                  q = 0.3648
Date    TT    R. A. (2000) Decl.     Delta      r    Elong.  Phase     V
2023 10 02    08 36 01.0 +36 22 06   0.6632  0.9643    67.3    73.3    21.4
...
2023 10 17    08 00 31.9 +39 18 39   0.6894  1.2014    88.9    56.1    21.4
...
2023 10 25    07 37 08.7 +40 40 13   0.6964  1.3195   101.1    47.7    21.4
...
2023 10 31    07 16 23.1 +41 30 23   0.7026  1.4045   110.7    41.4    21.4
2023 11 01    07 12 38.7 +41 37 19   0.7039  1.4184   112.3    40.3    21.4
2023 11 02    07 08 49.7 +41 43 45   0.7053  1.4322   114.0    39.3    21.4
...
2023 11 08    06 44 26.1 +42 09 54   0.7168  1.5135   124.0    32.9    21.4
...
2023 11 16    06 09 13.1 +42 03 07   0.7434  1.6179   137.6    24.3    21.4
...
2023 12 01    05 06 16.5 +39 32 35   0.8435  1.8025   160.1    10.7    21.4

M. P. C. Staff               (C) Copyright 2023 MPC           M.P.E.C. 2023-V04




More information about the Iaude mailing list